N85KY MUHG-MUHA

Flight info

Callsign N85KY
Flight time 1h 35m
Altitude 28000
Route PIKTI1 ANETU J2 XOPLI DCT DUTAN DUTAN1A
Aircraft TBM8/L-SDFGRWY/S

Departure

Time 2026-05-06 13:58
Airport Frank Pais International Airport (MUHG)

Arrival

Time 2026-05-06 15:34
Airport José Martí International Airport (MUHA)
Time Latitude Longitude Altitude Speed Heading
2026-05-06 13:50 20.78926 -76.30630 365 ft 0 kts 90°
2026-05-06 13:51 20.78973 -76.30671 366 ft 27 kts 280°
2026-05-06 13:51 20.78946 -76.30815 365 ft 10 kts 271°
2026-05-06 13:52 20.78949 -76.30853 365 ft 1 kts 276°
2026-05-06 13:52 20.78949 -76.30854 365 ft 0 kts 276°
2026-05-06 13:52 20.78949 -76.30858 365 ft 5 kts 272°
2026-05-06 13:52 20.78949 -76.30889 365 ft 0 kts 270°
2026-05-06 13:54 20.78949 -76.30890 365 ft 2 kts 269°
2026-05-06 13:54 20.78946 -76.30974 365 ft 11 kts 270°
2026-05-06 13:54 20.78897 -76.31124 365 ft 42 kts 232°
2026-05-06 13:54 20.78622 -76.31439 365 ft 70 kts 225°
2026-05-06 13:55 20.78322 -76.31766 365 ft 69 kts 224°
2026-05-06 13:55 20.78046 -76.32080 365 ft 42 kts 222°
2026-05-06 13:55 20.77904 -76.32231 365 ft 19 kts 223°
2026-05-06 13:55 20.77758 -76.32396 365 ft 35 kts 229°
2026-05-06 13:56 20.77662 -76.32525 365 ft 13 kts 182°
2026-05-06 13:56 20.77664 -76.32501 365 ft 0 kts 47°
2026-05-06 13:57 20.77671 -76.32493 365 ft 11 kts 46°
2026-05-06 13:57 20.77845 -76.32301 365 ft 62 kts 45°
2026-05-06 13:57 20.78258 -76.31848 380 ft 105 kts 43°
2026-05-06 13:57 20.78839 -76.31255 542 ft 126 kts 44°
2026-05-06 13:58 20.79536 -76.30500 581 ft 158 kts 45°
2026-05-06 13:58 20.80352 -76.29586 663 ft 180 kts 47°
2026-05-06 13:58 20.81221 -76.28604 951 ft 183 kts 46°
2026-05-06 13:58 20.82077 -76.27672 1327 ft 180 kts 37°
2026-05-06 13:59 20.83255 -76.27108 1410 ft 193 kts 15°
2026-05-06 13:59 20.84559 -76.26955 1783 ft 192 kts
2026-05-06 13:59 20.85938 -76.26947 1785 ft 208 kts 354°
2026-05-06 13:59 20.87369 -76.27290 1920 ft 208 kts 345°
2026-05-06 14:00 20.88787 -76.27791 1822 ft 219 kts 340°
2026-05-06 14:00 20.90196 -76.28558 1537 ft 234 kts 330°
2026-05-06 14:00 20.91660 -76.29378 1264 ft 240 kts 334°
2026-05-06 14:00 20.93030 -76.30189 1818 ft 203 kts 330°
2026-05-06 14:01 20.94062 -76.30758 2948 ft 150 kts 339°
2026-05-06 14:01 20.94806 -76.31113 3587 ft 125 kts 328°
2026-05-06 14:01 20.95499 -76.31856 3476 ft 167 kts 312°
2026-05-06 14:01 20.96170 -76.32806 4189 ft 137 kts 302°
2026-05-06 14:02 20.96735 -76.33767 4178 ft 171 kts 306°
2026-05-06 14:02 20.97371 -76.34793 4702 ft 166 kts 298°
2026-05-06 14:02 20.97917 -76.35927 5063 ft 167 kts 296°
2026-05-06 14:02 20.98515 -76.36891 5806 ft 127 kts 309°
2026-05-06 14:03 20.99026 -76.37685 6268 ft 122 kts 301°
2026-05-06 14:03 20.99382 -76.38487 6586 ft 126 kts 289°
2026-05-06 14:03 20.99702 -76.39375 6911 ft 128 kts 289°
2026-05-06 14:03 20.99956 -76.40278 7030 ft 142 kts 282°
2026-05-06 14:04 21.00178 -76.41414 7327 ft 151 kts 279°
2026-05-06 14:04 21.00371 -76.42486 7834 ft 139 kts 291°
2026-05-06 14:04 21.00880 -76.43291 8348 ft 127 kts 305°
2026-05-06 14:04 21.01393 -76.44070 8674 ft 131 kts 303°
2026-05-06 14:05 21.01947 -76.44893 8908 ft 142 kts 304°
2026-05-06 14:05 21.02544 -76.45764 9162 ft 152 kts 305°
2026-05-06 14:05 21.03192 -76.46707 9421 ft 162 kts 305°
2026-05-06 14:05 21.03879 -76.47707 9695 ft 171 kts 305°
2026-05-06 14:06 21.04597 -76.48759 9958 ft 179 kts 304°
2026-05-06 14:06 21.05261 -76.49913 10209 ft 185 kts 292°
2026-05-06 14:06 21.05746 -76.51212 10451 ft 191 kts 290°
2026-05-06 14:06 21.06328 -76.52509 10685 ft 197 kts 302°
2026-05-06 14:07 21.07133 -76.53711 10923 ft 201 kts 304°
2026-05-06 14:07 21.07659 -76.55090 11172 ft 204 kts 276°
2026-05-06 14:07 21.07470 -76.56595 11427 ft 208 kts 249°
2026-05-06 14:07 21.06971 -76.58045 11666 ft 213 kts 253°
2026-05-06 14:08 21.06640 -76.59609 11909 ft 218 kts 259°
2026-05-06 14:08 21.06358 -76.61217 12158 ft 221 kts 260°
2026-05-06 14:08 21.06097 -76.62852 12402 ft 225 kts 259°
2026-05-06 14:08 21.05808 -76.64506 12648 ft 227 kts 259°
2026-05-06 14:09 21.05505 -76.66173 12899 ft 229 kts 259°
2026-05-06 14:09 21.05203 -76.67852 13153 ft 231 kts 259°
2026-05-06 14:09 21.04902 -76.69545 13405 ft 232 kts 259°
2026-05-06 14:09 21.04597 -76.71249 13662 ft 233 kts 259°
2026-05-06 14:10 21.04293 -76.72937 13919 ft 235 kts 259°
2026-05-06 14:10 21.03985 -76.74655 14136 ft 236 kts 259°
2026-05-06 14:10 21.03677 -76.76380 14357 ft 236 kts 259°
2026-05-06 14:10 21.03386 -76.78114 14587 ft 237 kts 264°
2026-05-06 14:11 21.03312 -76.79879 14819 ft 238 kts 268°
2026-05-06 14:11 21.03250 -76.81651 15049 ft 239 kts 267°
2026-05-06 14:11 21.03172 -76.83426 15282 ft 239 kts 267°
2026-05-06 14:11 21.03092 -76.85205 15517 ft 239 kts 268°
2026-05-06 14:12 21.03015 -76.86961 15756 ft 240 kts 267°
2026-05-06 14:12 21.02939 -76.88744 15991 ft 239 kts 268°
2026-05-06 14:12 21.02861 -76.90523 16231 ft 240 kts 268°
2026-05-06 14:12 21.02784 -76.92306 16471 ft 240 kts 268°
2026-05-06 14:13 21.02707 -76.94089 16710 ft 240 kts 268°
2026-05-06 14:13 21.02629 -76.95873 16959 ft 240 kts 268°
2026-05-06 14:13 21.02551 -76.97656 17207 ft 240 kts 268°
2026-05-06 14:13 21.02473 -76.99437 17456 ft 239 kts 268°
2026-05-06 14:14 21.02397 -77.01192 17708 ft 239 kts 268°
2026-05-06 14:14 21.02318 -77.02969 17962 ft 239 kts 268°
2026-05-06 14:14 21.02239 -77.04744 18214 ft 238 kts 268°
2026-05-06 14:14 21.02160 -77.06513 18458 ft 238 kts 268°
2026-05-06 14:15 21.02084 -77.08280 18675 ft 238 kts 268°
2026-05-06 14:15 21.02198 -77.10027 18883 ft 236 kts 286°
2026-05-06 14:15 21.02912 -77.11593 19099 ft 235 kts 302°
2026-05-06 14:15 21.03744 -77.13072 19321 ft 235 kts 299°
2026-05-06 14:16 21.04464 -77.14635 19553 ft 234 kts 295°
2026-05-06 14:16 21.05121 -77.16225 19781 ft 233 kts 295°
2026-05-06 14:16 21.05793 -77.17799 20008 ft 232 kts 296°
2026-05-06 14:16 21.06480 -77.19365 20239 ft 232 kts 296°
2026-05-06 14:17 21.07163 -77.20933 20420 ft 233 kts 296°
2026-05-06 14:17 21.07850 -77.22521 20579 ft 236 kts 296°
2026-05-06 14:17 21.08545 -77.24123 20746 ft 238 kts 296°
2026-05-06 14:17 21.09244 -77.25736 20912 ft 240 kts 296°
2026-05-06 14:18 21.09946 -77.27357 21083 ft 241 kts 296°
2026-05-06 14:18 21.10652 -77.28985 21247 ft 242 kts 297°
2026-05-06 14:18 21.11351 -77.30598 21412 ft 242 kts 297°
2026-05-06 14:18 21.12061 -77.32237 21581 ft 243 kts 297°
2026-05-06 14:19 21.12773 -77.33880 21759 ft 243 kts 297°
2026-05-06 14:19 21.13482 -77.35521 21923 ft 243 kts 297°
2026-05-06 14:19 21.14193 -77.37166 22102 ft 243 kts 297°
2026-05-06 14:19 21.14904 -77.38811 22272 ft 243 kts 297°
2026-05-06 14:20 21.15615 -77.40455 22441 ft 243 kts 297°
2026-05-06 14:20 21.16327 -77.42100 22617 ft 243 kts 297°
2026-05-06 14:20 21.17028 -77.43725 22798 ft 243 kts 298°
2026-05-06 14:20 21.17738 -77.45370 22971 ft 243 kts 298°
2026-05-06 14:21 21.18448 -77.47015 23146 ft 243 kts 298°
2026-05-06 14:21 21.19157 -77.48657 23326 ft 243 kts 298°
2026-05-06 14:21 21.19866 -77.50298 23504 ft 242 kts 298°
2026-05-06 14:21 21.20571 -77.51936 23675 ft 242 kts 298°
2026-05-06 14:22 21.21276 -77.53573 23835 ft 242 kts 298°
2026-05-06 14:22 21.21980 -77.55204 23986 ft 241 kts 298°
2026-05-06 14:22 21.22683 -77.56833 24137 ft 240 kts 298°
2026-05-06 14:22 21.23372 -77.58436 24289 ft 240 kts 298°
2026-05-06 14:23 21.24069 -77.60056 24439 ft 239 kts 298°
2026-05-06 14:23 21.24766 -77.61672 24591 ft 239 kts 298°
2026-05-06 14:23 21.25460 -77.63285 24753 ft 238 kts 298°
2026-05-06 14:23 21.26153 -77.64897 24903 ft 238 kts 298°
2026-05-06 14:24 21.26844 -77.66505 25063 ft 237 kts 298°
2026-05-06 14:24 21.27533 -77.68106 25224 ft 237 kts 298°
2026-05-06 14:24 21.28221 -77.69709 25375 ft 236 kts 298°
2026-05-06 14:24 21.28907 -77.71305 25536 ft 235 kts 298°
2026-05-06 14:25 21.29582 -77.72875 25692 ft 235 kts 298°
2026-05-06 14:25 21.30264 -77.74465 25855 ft 234 kts 298°
2026-05-06 14:25 21.30945 -77.76052 26017 ft 234 kts 298°
2026-05-06 14:25 21.31625 -77.77634 26178 ft 233 kts 298°
2026-05-06 14:26 21.32302 -77.79213 26340 ft 233 kts 297°
2026-05-06 14:26 21.32977 -77.80787 26510 ft 232 kts 297°
2026-05-06 14:26 21.33650 -77.82357 26671 ft 231 kts 297°
2026-05-06 14:26 21.34321 -77.83923 26837 ft 231 kts 298°
2026-05-06 14:27 21.34982 -77.85464 27005 ft 230 kts 297°
2026-05-06 14:27 21.35649 -77.87021 27168 ft 229 kts 297°
2026-05-06 14:27 21.36313 -77.88572 27340 ft 228 kts 297°
2026-05-06 14:27 21.36975 -77.90120 27511 ft 228 kts 297°
2026-05-06 14:28 21.37634 -77.91662 27681 ft 227 kts 297°
2026-05-06 14:28 21.38292 -77.93198 27855 ft 226 kts 297°
2026-05-06 14:28 21.38948 -77.94732 27992 ft 227 kts 297°
2026-05-06 14:28 21.39612 -77.96285 28052 ft 231 kts 297°
2026-05-06 14:29 21.40280 -77.97845 28084 ft 236 kts 297°
2026-05-06 14:29 21.40972 -77.99463 28093 ft 241 kts 297°
2026-05-06 14:29 21.41616 -78.01147 28104 ft 249 kts 288°
2026-05-06 14:29 21.41706 -78.03032 28112 ft 260 kts 267°
2026-05-06 14:30 21.41605 -78.04965 28104 ft 259 kts 281°
2026-05-06 14:30 21.42167 -78.06773 28105 ft 256 kts 303°
2026-05-06 14:30 21.43200 -78.08335 28106 ft 258 kts 309°
2026-05-06 14:30 21.44231 -78.09932 28109 ft 262 kts 303°
2026-05-06 14:31 21.45066 -78.11689 28107 ft 267 kts 296°
2026-05-06 14:31 21.45788 -78.13504 28103 ft 269 kts 296°
2026-05-06 14:31 21.46565 -78.15338 28102 ft 271 kts 298°
2026-05-06 14:31 21.47384 -78.17165 28099 ft 272 kts 298°
2026-05-06 14:32 21.48199 -78.19007 28096 ft 274 kts 298°
2026-05-06 14:32 21.49006 -78.20864 28095 ft 275 kts 298°
2026-05-06 14:32 21.49819 -78.22730 28093 ft 276 kts 298°
2026-05-06 14:32 21.50639 -78.24602 28089 ft 277 kts 298°
2026-05-06 14:33 21.51461 -78.26479 28092 ft 278 kts 298°
2026-05-06 14:33 21.52271 -78.28336 28093 ft 279 kts 298°
2026-05-06 14:33 21.53095 -78.30224 28095 ft 279 kts 298°
2026-05-06 14:33 21.53921 -78.32115 28093 ft 280 kts 298°
2026-05-06 14:34 21.54749 -78.34010 28095 ft 281 kts 298°
2026-05-06 14:34 21.55577 -78.35911 28094 ft 281 kts 298°
2026-05-06 14:34 21.56407 -78.37815 28096 ft 282 kts 298°
2026-05-06 14:34 21.57239 -78.39722 28093 ft 282 kts 298°
2026-05-06 14:35 21.58071 -78.41631 28096 ft 282 kts 298°
2026-05-06 14:35 21.58904 -78.43543 28099 ft 283 kts 298°
2026-05-06 14:35 21.59738 -78.45459 28095 ft 283 kts 298°
2026-05-06 14:35 21.60561 -78.47350 28101 ft 284 kts 298°
2026-05-06 14:36 21.61396 -78.49272 28097 ft 284 kts 298°
2026-05-06 14:36 21.62231 -78.51191 28089 ft 284 kts 298°
2026-05-06 14:36 21.63067 -78.53115 28091 ft 284 kts 298°
2026-05-06 14:36 21.63902 -78.55036 28094 ft 284 kts 298°
2026-05-06 14:37 21.64738 -78.56959 28095 ft 284 kts 298°
2026-05-06 14:37 21.65574 -78.58883 28096 ft 284 kts 298°
2026-05-06 14:37 21.66409 -78.60809 28090 ft 284 kts 298°
2026-05-06 14:37 21.67246 -78.62737 28092 ft 285 kts 298°
2026-05-06 14:38 21.68071 -78.64639 28100 ft 285 kts 298°
2026-05-06 14:38 21.68907 -78.66568 28092 ft 285 kts 298°
2026-05-06 14:38 21.69743 -78.68498 28093 ft 285 kts 298°
2026-05-06 14:38 21.70580 -78.70427 28093 ft 285 kts 298°
2026-05-06 14:39 21.71415 -78.72355 28092 ft 285 kts 298°
2026-05-06 14:39 21.72250 -78.74285 28092 ft 285 kts 298°
2026-05-06 14:39 21.73085 -78.76215 28088 ft 285 kts 298°
2026-05-06 14:39 21.73922 -78.78147 28087 ft 285 kts 298°
2026-05-06 14:40 21.74756 -78.80077 28097 ft 285 kts 298°
2026-05-06 14:40 21.75580 -78.81984 28095 ft 285 kts 298°
2026-05-06 14:40 21.76415 -78.83917 28093 ft 285 kts 298°
2026-05-06 14:40 21.77250 -78.85848 28094 ft 285 kts 298°
2026-05-06 14:41 21.78085 -78.87782 28090 ft 285 kts 298°
2026-05-06 14:41 21.78920 -78.89718 28091 ft 285 kts 298°
2026-05-06 14:41 21.79755 -78.91654 28092 ft 285 kts 298°
2026-05-06 14:41 21.80589 -78.93588 28085 ft 285 kts 298°
2026-05-06 14:42 21.81424 -78.95524 28088 ft 285 kts 298°
2026-05-06 14:42 21.82257 -78.97457 28092 ft 285 kts 298°
2026-05-06 14:42 21.83079 -78.99366 28094 ft 285 kts 298°
2026-05-06 14:42 21.83913 -79.01303 28089 ft 285 kts 298°
2026-05-06 14:43 21.84747 -79.03239 28091 ft 285 kts 298°
2026-05-06 14:43 21.85580 -79.05176 28091 ft 285 kts 298°
2026-05-06 14:43 21.86412 -79.07112 28090 ft 285 kts 298°
2026-05-06 14:43 21.87245 -79.09048 28094 ft 285 kts 298°
2026-05-06 14:44 21.88077 -79.10985 28091 ft 285 kts 298°
2026-05-06 14:44 21.88752 -79.13003 28096 ft 288 kts 290°
2026-05-06 14:44 21.89277 -79.15085 28094 ft 288 kts 289°
2026-05-06 14:45 21.90353 -79.19211 28093 ft 288 kts 290°
2026-05-06 14:45 21.90908 -79.21282 28092 ft 288 kts 290°
2026-05-06 14:45 21.91453 -79.23359 28095 ft 288 kts 290°
2026-05-06 14:45 21.91997 -79.25435 28097 ft 288 kts 290°
2026-05-06 14:46 21.92544 -79.27511 28097 ft 288 kts 290°
2026-05-06 14:46 21.93092 -79.29589 28095 ft 288 kts 290°
2026-05-06 14:46 21.93638 -79.31667 28096 ft 288 kts 290°
2026-05-06 14:46 21.94183 -79.33745 28096 ft 288 kts 290°
2026-05-06 14:47 21.94723 -79.35795 28096 ft 288 kts 290°
2026-05-06 14:47 21.95269 -79.37874 28094 ft 288 kts 290°
2026-05-06 14:47 21.95813 -79.39949 28095 ft 288 kts 290°
2026-05-06 14:47 21.96358 -79.42026 28093 ft 288 kts 290°
2026-05-06 14:48 21.96903 -79.44099 28100 ft 286 kts 290°
2026-05-06 14:48 21.97445 -79.46161 28103 ft 286 kts 290°
2026-05-06 14:48 21.97980 -79.48229 28107 ft 287 kts 290°
2026-05-06 14:48 21.98523 -79.50300 28109 ft 287 kts 290°
2026-05-06 14:49 21.99068 -79.52374 28105 ft 288 kts 290°
2026-05-06 14:49 21.99604 -79.54421 28104 ft 288 kts 290°
2026-05-06 14:49 22.00146 -79.56500 28107 ft 288 kts 290°
2026-05-06 14:49 22.00688 -79.58578 28104 ft 288 kts 290°
2026-05-06 14:50 22.01232 -79.60658 28104 ft 289 kts 290°
2026-05-06 14:50 22.01775 -79.62740 28106 ft 289 kts 290°
2026-05-06 14:50 22.02317 -79.64824 28101 ft 289 kts 290°
2026-05-06 14:50 22.02859 -79.66907 28093 ft 289 kts 290°
2026-05-06 14:51 22.03402 -79.68986 28091 ft 288 kts 290°
2026-05-06 14:51 22.03943 -79.71066 28091 ft 288 kts 290°
2026-05-06 14:51 22.04476 -79.73116 28096 ft 288 kts 290°
2026-05-06 14:51 22.05016 -79.75193 28102 ft 288 kts 290°
2026-05-06 14:52 22.05556 -79.77268 28105 ft 288 kts 290°
2026-05-06 14:52 22.06095 -79.79349 28108 ft 288 kts 290°
2026-05-06 14:52 22.06635 -79.81428 28109 ft 288 kts 290°
2026-05-06 14:52 22.07176 -79.83512 28108 ft 289 kts 290°
2026-05-06 14:53 22.07716 -79.85596 28102 ft 289 kts 290°
2026-05-06 14:53 22.08256 -79.87679 28102 ft 289 kts 290°
2026-05-06 14:53 22.08788 -79.89737 28111 ft 289 kts 290°
2026-05-06 14:53 22.09328 -79.91822 28102 ft 289 kts 290°
2026-05-06 14:54 22.09868 -79.93908 28108 ft 289 kts 290°
2026-05-06 14:54 22.10407 -79.95994 28106 ft 289 kts 290°
2026-05-06 14:54 22.10947 -79.98082 28106 ft 289 kts 290°
2026-05-06 14:54 22.11485 -80.00169 28101 ft 289 kts 290°
2026-05-06 14:55 22.11843 -80.01555 28106 ft 289 kts 290°
2026-05-06 14:55 22.12381 -80.03643 28106 ft 289 kts 290°
2026-05-06 14:55 22.12921 -80.05732 28105 ft 289 kts 290°
2026-05-06 14:55 22.13634 -80.08499 28101 ft 289 kts 290°
2026-05-06 14:56 22.14171 -80.10589 28103 ft 289 kts 290°
2026-05-06 14:56 22.14709 -80.12678 28105 ft 289 kts 290°
2026-05-06 14:56 22.15247 -80.14769 28101 ft 289 kts 290°
2026-05-06 14:56 22.15603 -80.16154 28101 ft 289 kts 290°
2026-05-06 14:57 22.16141 -80.18246 28098 ft 289 kts 290°
2026-05-06 14:57 22.16678 -80.20336 28099 ft 289 kts 290°
2026-05-06 14:57 22.17214 -80.22427 28097 ft 289 kts 290°
2026-05-06 14:57 22.17924 -80.25196 28097 ft 289 kts 290°
2026-05-06 14:58 22.18459 -80.27282 28096 ft 289 kts 290°
2026-05-06 14:58 22.18994 -80.29372 28101 ft 289 kts 290°
2026-05-06 14:58 22.19356 -80.30784 28102 ft 289 kts 290°
2026-05-06 14:58 22.19883 -80.32845 28102 ft 289 kts 290°
2026-05-06 14:59 22.20418 -80.34935 28097 ft 289 kts 290°
2026-05-06 14:59 22.20952 -80.37024 28096 ft 289 kts 290°
2026-05-06 14:59 22.21485 -80.39112 28099 ft 289 kts 290°
2026-05-06 14:59 22.22018 -80.41200 28098 ft 289 kts 290°
2026-05-06 15:00 22.22552 -80.43290 28098 ft 289 kts 290°
2026-05-06 15:00 22.23085 -80.45380 28100 ft 289 kts 290°
2026-05-06 15:00 22.23618 -80.47470 28097 ft 289 kts 290°
2026-05-06 15:00 22.24150 -80.49559 28099 ft 289 kts 290°
2026-05-06 15:01 22.24675 -80.51623 28096 ft 289 kts 290°
2026-05-06 15:01 22.25207 -80.53715 28094 ft 289 kts 290°
2026-05-06 15:01 22.25739 -80.55806 28099 ft 289 kts 290°
2026-05-06 15:01 22.26271 -80.57898 28094 ft 289 kts 290°
2026-05-06 15:02 22.26803 -80.59993 28092 ft 289 kts 290°
2026-05-06 15:02 22.27334 -80.62085 28092 ft 289 kts 290°
2026-05-06 15:02 22.27866 -80.64180 28092 ft 289 kts 290°
2026-05-06 15:02 22.28397 -80.66275 28092 ft 289 kts 290°
2026-05-06 15:03 22.28928 -80.68369 28093 ft 289 kts 290°
2026-05-06 15:03 22.29458 -80.70465 28089 ft 290 kts 290°
2026-05-06 15:03 22.29982 -80.72534 28084 ft 290 kts 290°
2026-05-06 15:03 22.30513 -80.74633 28086 ft 290 kts 290°
2026-05-06 15:04 22.31043 -80.76732 28081 ft 290 kts 290°
2026-05-06 15:04 22.31574 -80.78830 28082 ft 290 kts 290°
2026-05-06 15:04 22.32104 -80.80930 28083 ft 290 kts 290°
2026-05-06 15:04 22.32633 -80.83029 28085 ft 290 kts 290°
2026-05-06 15:05 22.33163 -80.85130 28087 ft 290 kts 290°
2026-05-06 15:05 22.33694 -80.87234 28087 ft 290 kts 290°
2026-05-06 15:05 22.34217 -80.89309 28088 ft 290 kts 290°
2026-05-06 15:05 22.34746 -80.91415 28088 ft 291 kts 290°
2026-05-06 15:06 22.35277 -80.93522 28086 ft 291 kts 290°
2026-05-06 15:06 22.35807 -80.95629 28087 ft 291 kts 290°
2026-05-06 15:06 22.36337 -80.97738 28087 ft 291 kts 290°
2026-05-06 15:06 22.36866 -80.99846 28091 ft 291 kts 290°
2026-05-06 15:07 22.37397 -81.01958 28091 ft 291 kts 290°
2026-05-06 15:07 22.37926 -81.04071 28091 ft 292 kts 290°
2026-05-06 15:07 22.38457 -81.06187 28087 ft 292 kts 290°
2026-05-06 15:07 22.38987 -81.08302 28088 ft 292 kts 290°
2026-05-06 15:08 22.39510 -81.10390 28091 ft 292 kts 290°
2026-05-06 15:08 22.40040 -81.12509 28086 ft 292 kts 290°
2026-05-06 15:08 22.40570 -81.14628 28086 ft 292 kts 290°
2026-05-06 15:08 22.41099 -81.16742 28088 ft 292 kts 290°
2026-05-06 15:09 22.41628 -81.18861 28086 ft 292 kts 290°
2026-05-06 15:09 22.42157 -81.20978 28088 ft 292 kts 290°
2026-05-06 15:09 22.42686 -81.23097 28086 ft 292 kts 290°
2026-05-06 15:09 22.43214 -81.25217 28087 ft 292 kts 290°
2026-05-06 15:10 22.43743 -81.27338 28082 ft 292 kts 290°
2026-05-06 15:10 22.44263 -81.29429 28080 ft 292 kts 290°
2026-05-06 15:10 22.44792 -81.31551 28083 ft 292 kts 290°
2026-05-06 15:10 22.45319 -81.33670 28082 ft 292 kts 290°
2026-05-06 15:11 22.45846 -81.35791 28084 ft 292 kts 290°
2026-05-06 15:11 22.46374 -81.37913 28087 ft 292 kts 290°
2026-05-06 15:11 22.46901 -81.40034 28090 ft 292 kts 290°
2026-05-06 15:11 22.47428 -81.42158 28085 ft 293 kts 290°
2026-05-06 15:12 22.47955 -81.44283 28084 ft 293 kts 290°
2026-05-06 15:12 22.48481 -81.46406 28082 ft 293 kts 290°
2026-05-06 15:12 22.49002 -81.48504 28086 ft 293 kts 290°
2026-05-06 15:12 22.49527 -81.50628 28087 ft 293 kts 290°
2026-05-06 15:13 22.50053 -81.52755 28082 ft 293 kts 290°
2026-05-06 15:13 22.50579 -81.54884 28082 ft 293 kts 290°
2026-05-06 15:13 22.51105 -81.57010 28086 ft 293 kts 290°
2026-05-06 15:13 22.51631 -81.59137 28081 ft 293 kts 290°
2026-05-06 15:14 22.52156 -81.61264 28085 ft 293 kts 290°
2026-05-06 15:14 22.52681 -81.63393 28083 ft 293 kts 290°
2026-05-06 15:14 22.53206 -81.65521 28084 ft 293 kts 290°
2026-05-06 15:14 22.53724 -81.67623 28084 ft 293 kts 289°
2026-05-06 15:15 22.54248 -81.69753 28079 ft 293 kts 289°
2026-05-06 15:15 22.54773 -81.71885 28079 ft 293 kts 289°
2026-05-06 15:15 22.55297 -81.74014 28078 ft 293 kts 289°
2026-05-06 15:15 22.55821 -81.76145 28081 ft 293 kts 289°
2026-05-06 15:16 22.56344 -81.78275 28081 ft 293 kts 289°
2026-05-06 15:16 22.56867 -81.80404 28080 ft 293 kts 289°
2026-05-06 15:16 22.57390 -81.82535 28048 ft 294 kts 289°
2026-05-06 15:16 22.57922 -81.84692 27601 ft 308 kts 289°
2026-05-06 15:17 22.58487 -81.86985 27119 ft 321 kts 289°
2026-05-06 15:17 22.59066 -81.89357 26647 ft 330 kts 289°
2026-05-06 15:17 22.59650 -81.91761 26183 ft 331 kts 289°
2026-05-06 15:17 22.60239 -81.94169 25715 ft 331 kts 289°
2026-05-06 15:18 22.60829 -81.96577 25262 ft 331 kts 289°
2026-05-06 15:18 22.61419 -81.98988 24812 ft 332 kts 289°
2026-05-06 15:18 22.62008 -82.01407 24370 ft 333 kts 289°
2026-05-06 15:18 22.62599 -82.03828 23936 ft 333 kts 289°
2026-05-06 15:19 22.63183 -82.06222 23484 ft 334 kts 289°
2026-05-06 15:19 22.63777 -82.08658 22966 ft 335 kts 289°
2026-05-06 15:19 22.64371 -82.11097 22472 ft 336 kts 289°
2026-05-06 15:19 22.64965 -82.13546 21971 ft 336 kts 289°
2026-05-06 15:20 22.65549 -82.15900 21499 ft 331 kts 289°
2026-05-06 15:20 22.66133 -82.18250 21021 ft 304 kts 290°
2026-05-06 15:20 22.66648 -82.20326 20508 ft 270 kts 290°
2026-05-06 15:20 22.67085 -82.22222 19811 ft 250 kts 291°
2026-05-06 15:21 22.67681 -82.23874 19125 ft 230 kts 301°
2026-05-06 15:21 22.68366 -82.25419 18304 ft 226 kts 302°
2026-05-06 15:21 22.69037 -82.26952 17294 ft 225 kts 301°
2026-05-06 15:21 22.69689 -82.28481 16342 ft 223 kts 300°
2026-05-06 15:22 22.70333 -82.29995 15412 ft 220 kts 300°
2026-05-06 15:22 22.70971 -82.31489 14501 ft 217 kts 299°
2026-05-06 15:22 22.71600 -82.32960 13582 ft 214 kts 298°
2026-05-06 15:22 22.72221 -82.34414 12600 ft 211 kts 298°
2026-05-06 15:23 22.72832 -82.35845 11651 ft 208 kts 298°
2026-05-06 15:23 22.73425 -82.37235 10740 ft 205 kts 298°
2026-05-06 15:23 22.74018 -82.38624 9825 ft 202 kts 297°
2026-05-06 15:23 22.74602 -82.39993 8844 ft 199 kts 297°
2026-05-06 15:24 22.75178 -82.41342 7891 ft 196 kts 297°
2026-05-06 15:24 22.75746 -82.42672 6967 ft 193 kts 296°
2026-05-06 15:24 22.76308 -82.43988 6028 ft 191 kts 295°
2026-05-06 15:24 22.76861 -82.45290 5098 ft 190 kts 294°
2026-05-06 15:25 22.77393 -82.46535 4531 ft 174 kts 294°
2026-05-06 15:25 22.77878 -82.47680 3973 ft 166 kts 293°
2026-05-06 15:25 22.78351 -82.48798 3475 ft 159 kts 294°
2026-05-06 15:25 22.78793 -82.49840 3215 ft 144 kts 294°
2026-05-06 15:26 22.79208 -82.50867 3104 ft 160 kts 291°
2026-05-06 15:26 22.79820 -82.51933 3055 ft 173 kts 316°
2026-05-06 15:26 22.80806 -82.52640 2949 ft 171 kts 330°
2026-05-06 15:26 22.81826 -82.53323 2739 ft 174 kts 326°
2026-05-06 15:27 22.82825 -82.54081 2526 ft 175 kts 324°
2026-05-06 15:27 22.83810 -82.54854 2312 ft 175 kts 324°
2026-05-06 15:27 22.84781 -82.55611 2160 ft 172 kts 324°
2026-05-06 15:27 22.85736 -82.56356 2099 ft 166 kts 325°
2026-05-06 15:28 22.86697 -82.57011 2055 ft 161 kts 340°
2026-05-06 15:28 22.87775 -82.57068 1994 ft 155 kts 19°
2026-05-06 15:28 22.88648 -82.56437 2012 ft 152 kts 52°
2026-05-06 15:28 22.89248 -82.55500 2003 ft 152 kts 57°
2026-05-06 15:29 22.89847 -82.54593 2059 ft 142 kts 56°
2026-05-06 15:29 22.90413 -82.53742 2053 ft 142 kts 56°
2026-05-06 15:29 22.91003 -82.52858 2056 ft 146 kts 56°
2026-05-06 15:29 22.91599 -82.51975 2040 ft 145 kts 56°
2026-05-06 15:30 22.92157 -82.51104 2050 ft 128 kts 57°
2026-05-06 15:30 22.92638 -82.50387 2033 ft 113 kts 54°
2026-05-06 15:30 22.93117 -82.49731 2020 ft 109 kts 54°
2026-05-06 15:30 22.93548 -82.49062 2012 ft 107 kts 55°
2026-05-06 15:31 22.94012 -82.48415 1924 ft 112 kts 51°
2026-05-06 15:31 22.94438 -82.47694 1833 ft 110 kts 63°
2026-05-06 15:31 22.94857 -82.47015 1791 ft 114 kts 49°
2026-05-06 15:32 22.95867 -82.45630 1368 ft 123 kts 62°
2026-05-06 15:32 22.96335 -82.44895 1219 ft 120 kts 47°
2026-05-06 15:32 22.96825 -82.44175 934 ft 117 kts 58°
2026-05-06 15:32 22.97243 -82.43454 549 ft 110 kts 55°
2026-05-06 15:33 22.97667 -82.42810 287 ft 101 kts 54°
2026-05-06 15:33 22.98085 -82.42186 223 ft 100 kts 57°
2026-05-06 15:33 22.98412 -82.41673 217 ft 70 kts 56°
2026-05-06 15:33 22.98662 -82.41293 213 ft 61 kts 53°
2026-05-06 15:34 22.98802 -82.41105 211 ft 14 kts 24°
2026-05-06 15:34 22.98905 -82.41081 211 ft 16 kts
2026-05-06 15:34 22.98968 -82.41072 211 ft 4 kts
2026-05-06 15:34 22.99019 -82.41053 211 ft 14 kts 37°
2026-05-06 15:35 22.99119 -82.40918 214 ft 35 kts 56°
2026-05-06 15:35 22.99219 -82.40768 211 ft 15 kts 52°
2026-05-06 15:35 22.99317 -82.40619 215 ft 42 kts 54°
2026-05-06 15:35 22.99449 -82.40421 216 ft 21 kts 56°
2026-05-06 15:36 22.99510 -82.40330 214 ft 19 kts 54°
2026-05-06 15:36 22.99639 -82.40136 213 ft 35 kts 49°
2026-05-06 15:36 22.99836 -82.39993 214 ft 37 kts 60°
2026-05-06 15:36 22.99936 -82.39853 215 ft 9 kts 49°
2026-05-06 15:37 22.99973 -82.39850 211 ft 7 kts 325°
2026-05-06 15:37 22.99991 -82.39865 216 ft 1 kts 325°
2026-05-06 15:37 22.99997 -82.39869 211 ft 4 kts 325°
2026-05-06 15:37 23.00005 -82.39875 219 ft 0 kts 325°
2026-05-06 15:38 23.00006 -82.39876 219 ft 0 kts 326°